Location: Newark
(47.9297°N, 19.1367°E)
Time: 20:54:30
(UTC+00:00)

ISS - Visible Passes

Search period start: 18 September 2020 00:00
Search period end: 28 September 2020 00:00
Orbit: 419 x 420 km, 51.6° (Epoch: 19 September)

Date Brightness Start Highest point End Pass type
(mag) Time Alt. Az. Time Alt. Az. Time Alt. Az.
18 Sep -2.9 18:04:25 10° SSW 18:07:27 31° SE 18:08:14 27° ESE visible
18 Sep -0.8 19:40:46 10° W 19:41:13 13° W 19:41:13 13° W visible
19 Sep -2.3 17:17:36 10° S 17:20:12 21° SE 17:22:49 10° E visible
19 Sep -3.3 18:53:19 10° WSW 18:56:09 59° WSW 18:56:09 59° WSW visible
20 Sep -3.8 18:05:58 10° WSW 18:09:19 70° SSE 18:10:54 29° ENE visible
20 Sep -0.8 19:43:01 10° W 19:43:53 16° WNW 19:43:53 16° WNW visible
21 Sep -3.4 17:18:43 10° SW 17:21:58 47° SSE 17:25:14 10° ENE visible
21 Sep -2.9 18:55:29 10° W 18:58:29 49° NW 18:58:29 49° NW visible
22 Sep -3.4 18:07:58 10° W 18:11:20 64° NNW 18:13:00 27° ENE visible
22 Sep -0.7 19:45:13 10° WNW 19:45:58 15° WNW 19:45:58 15° WNW visible
23 Sep -3.7 17:20:30 10° WSW 17:23:52 84° NNW 17:27:16 10° ENE visible
23 Sep -2.4 18:57:41 10° WNW 19:00:24 38° NNW 19:00:24 38° NNW visible
24 Sep -2.9 18:10:09 10° W 18:13:25 45° N 18:14:47 28° NE visible
24 Sep -0.4 19:47:16 10° WNW 19:47:44 13° WNW 19:47:44 13° WNW visible
25 Sep -3.1 17:22:35 10° W 17:25:53 52° NNW 17:29:06 11° ENE visible
25 Sep -2.1 18:59:47 10° WNW 19:02:04 34° NW 19:02:04 34° NW visible
26 Sep -2.9 18:12:16 10° WNW 18:15:31 42° N 18:16:22 34° NE visible
26 Sep -0.2 19:49:11 10° WNW 19:49:19 11° WNW 19:49:19 11° WNW visible
27 Sep -2.9 17:24:41 10° WNW 17:27:57 42° N 17:30:40 13° ENE visible
27 Sep -1.8 19:01:43 10° WNW 19:03:37 30° NW 19:03:37 30° NW visible
